User: anonymous   Login
Location: Ostrava
(49.8330°N, 18.2830°E)
Time: 18:30:17
(UTC+02:00)
Language:

Vanguard 2 Rocket - Orbit

View from above orbital plane
View from above orbital plane
View from above satellite
View from above satellite

Ground track
Ground track

The orbit data is extracted from the following two-line orbital elements,

1 00012U 59001B   16147.04866657  .00000044  00000-0  84911-5 0  9995
2 00012  32.9010 139.9866 1667873 198.4771 154.7366 11.43984978352609
Epoch (UTC): 26 May 2016 01:10:04
Eccentricity: 0.1667873
inclination: 32.9010°
perigee height: 554 km
apogee height: 3329 km
right ascension of ascending node: 139.9866°
argument of perigee: 198.4771°
revolutions per day: 11.43984978
mean anomaly at epoch: 154.7366°
orbit number at epoch: 35260

The dashed part of the orbit path shows where the satellite is in the earth's shadow,  

DLR